Weather History for Taunton, MA

Change the Weather History Date:

Monday, February 11, 2013

  Actual Average Record
Temperature  
Mean Temperature 29 °F -  
Max Temperature 48 °F 39 °F 62 °F (1981)
Min Temperature 10 °F 17 °F -8 °F (1978)
Degree Days  
Heating Degree Days 36    
Moisture  
Dew Point 36 °F    
Average Humidity 88    
Maximum Humidity 93    
Minimum Humidity 80    
Precipitation  
Precipitation 0.27 in - - ()
Sea Level Pressure  
Sea Level Pressure 29.87 in    
Wind  
Wind Speed 4 mph (SSW)    
Max Wind Speed 14 mph    
Max Gust Speed 24 mph    
Visibility 4 miles    
Events Fog , Rain    
Averages and records for this station are not official NWS values.
T = Trace of Precipitation, MM = Missing Value Source: NWS Daily Summary

Daily Weather History Graph

Daily Weather History Graph

Search for Another Location

Airport:

Trip Planner

Search our weather history database for the weather conditions in past years. The results will help you decide how hot, cold, wet, or windy it might be!

Date:

Astronomy

Feb. 11, 2013 Rise Set
Actual Time 6:44 AM EST 5:12 PM EST
Civil Twilight 6:15 AM EST 5:41 PM EST
Nautical Twilight 5:43 AM EST 6:14 PM EST
Astronomical Twilight 5:10 AM EST 6:46 PM EST
Moon 7:05 AM EST (2/11) 7:08 PM EST (2/11)
Length of Visible Light 11h 25m
Length of Day
10h 27m
Waxing Crescent, 3% of the Moon is Illuminated
Feb 11
Waxing Crescent
Feb 17
First Quarter
Feb 25
Full
Mar 4
Last Quarter
Mar 11
New

Hourly Weather History & Observations

Time (EST) Temp. Windchill Dew Point Humidity Pressure Visibility Wind Dir Wind Speed Gust Speed Precip Events Conditions
12:52 AM 10.0 °F - 5.0 °F 80% 30.35 in 8.0 mi Calm Calm - N/A   Clear
1:52 AM 10.9 °F - 6.1 °F 81% 30.31 in 9.0 mi Calm Calm - N/A   Clear
2:52 AM 12.9 °F - 8.1 °F 81% 30.30 in 7.0 mi Calm Calm - N/A   Clear
3:52 AM 16.0 °F - 10.9 °F 81% 30.28 in 9.0 mi Calm Calm - N/A   Clear
4:52 AM 18.0 °F - 12.9 °F 81% 30.26 in 9.0 mi Calm Calm - N/A   Clear
5:52 AM 19.0 °F - 15.1 °F 85% 30.26 in 9.0 mi Calm Calm - N/A   Mostly Cloudy
6:52 AM 23.0 °F - 19.0 °F 85% 30.22 in 9.0 mi Calm Calm - N/A   Overcast
7:52 AM 28.9 °F 21.9 °F 24.1 °F 82% 30.20 in 10.0 mi SE 6.9 mph - N/A   Overcast
8:52 AM 33.1 °F 27.7 °F 28.0 °F 82% 30.16 in 6.0 mi SE 5.8 mph - 0.00 in Rain Light Rain
9:00 AM 34.0 °F 27.2 °F 28.9 °F 82% 30.15 in 6.0 mi SE 8.1 mph - 0.01 in Rain Light Freezing Rain
9:24 AM 35.1 °F 28.6 °F 30.0 °F 82% 30.13 in 10.0 mi SSE 8.1 mph - 0.01 in Rain Light Rain
9:52 AM 35.1 °F 30.1 °F 30.9 °F 85% 30.10 in 10.0 mi SE 5.8 mph - 0.01 in Rain Light Rain
10:52 AM 37.9 °F 32.1 °F 34.0 °F 86% 30.04 in 8.0 mi SSE 8.1 mph - 0.01 in Rain Light Rain
11:11 AM 37.9 °F 35.5 °F 34.0 °F 86% 30.02 in 7.0 mi Variable 3.5 mph - 0.00 in Rain Light Rain
11:43 AM 39.0 °F 32.8 °F 35.1 °F 86% 29.98 in 4.0 mi SSE 9.2 mph - 0.01 in Rain Light Rain
11:50 AM 39.2 °F 33.6 °F 35.6 °F 87% 29.97 in 4.0 mi SSE 8.1 mph - 0.01 in Rain Light Rain
11:52 AM 39.9 °F 34.5 °F 36.0 °F 86% 29.97 in 4.0 mi SSE 8.1 mph - 0.01 in Rain Light Rain
12:52 PM 43.0 °F 38.2 °F 39.0 °F 86% 29.90 in 4.0 mi SSE 8.1 mph - 0.05 in Rain Light Rain
1:52 PM 46.9 °F - 43.0 °F 86% 29.84 in 4.0 mi South 13.8 mph 24.2 mph 0.08 in Rain Light Rain
2:52 PM 46.9 °F - 44.1 °F 90% 29.80 in 2.5 mi South 8.1 mph - 0.04 in Rain Light Rain
2:57 PM 48.0 °F - 44.1 °F 86% 29.79 in 1.2 mi South 8.1 mph - 0.02 in Rain Heavy Rain
3:07 PM 46.9 °F - 44.1 °F 90% 29.80 in 2.0 mi SW 6.9 mph 17.3 mph 0.03 in Rain Light Rain
3:36 PM 46.9 °F - 44.1 °F 90% 29.78 in 2.0 mi SSW 6.9 mph - 0.05 in Rain Light Rain
3:52 PM 46.9 °F - 44.1 °F 90% 29.78 in 1.8 mi SSW 9.2 mph - 0.06 in Rain Light Rain
4:00 PM 46.9 °F - 44.1 °F 90% 29.76 in 3.0 mi South 5.8 mph - 0.01 in Rain Light Rain
4:17 PM 46.9 °F - 44.1 °F 90% 29.76 in 6.0 mi SW 6.9 mph - 0.01 in   Overcast
4:28 PM 46.9 °F - 44.1 °F 90% 29.75 in 1.8 mi SSW 4.6 mph - 0.01 in Rain Light Rain
4:37 PM 46.9 °F - 44.1 °F 90% 29.74 in 2.5 mi SSW 5.8 mph - 0.01 in Rain Light Rain
4:49 PM 46.4 °F 43.5 °F 44.6 °F 93% 29.74 in 2.5 mi SSW 5.8 mph - 0.01 in   Overcast
4:52 PM 46.0 °F 43.9 °F 44.1 °F 93% 29.74 in 3.0 mi SSW 4.6 mph - 0.01 in   Overcast
5:00 PM 46.9 °F - 44.1 °F 90% 29.73 in 2.5 mi SSW 5.8 mph - N/A   Overcast
5:52 PM 46.0 °F 43.1 °F 44.1 °F 93% 29.71 in 0.5 mi SSW 5.8 mph - N/A Fog Fog
6:52 PM 46.0 °F 41.9 °F 44.1 °F 93% 29.69 in 0.8 mi SSW 8.1 mph - N/A   Mist
7:52 PM 45.0 °F 43.5 °F 43.0 °F 93% 29.67 in 0.8 mi SW 3.5 mph - N/A   Overcast
8:15 PM 45.0 °F 42.6 °F 43.0 °F 93% 29.66 in 1.5 mi SW 4.6 mph - N/A   Overcast
8:33 PM 45.0 °F 42.6 °F 43.0 °F 93% 29.65 in 1.2 mi SW 4.6 mph - N/A   Overcast
8:52 PM 45.0 °F 43.5 °F 43.0 °F 93% 29.65 in 1.0 mi SW 3.5 mph - N/A   Overcast
9:16 PM 45.0 °F - 43.0 °F 93% 29.64 in 0.5 mi Calm Calm - N/A Fog Fog
9:42 PM 44.1 °F 42.5 °F 42.1 °F 93% 29.64 in 1.0 mi SW 3.5 mph - N/A   Overcast
9:52 PM 45.0 °F 42.6 °F 42.1 °F 90% 29.63 in 1.5 mi SW 4.6 mph - N/A   Overcast
10:05 PM 44.1 °F 41.5 °F 42.1 °F 93% 29.63 in 1.0 mi SSW 4.6 mph - N/A   Overcast
10:17 PM 44.1 °F 41.5 °F 42.1 °F 93% 29.62 in 1.8 mi SW 4.6 mph - N/A   Overcast
10:43 PM 44.1 °F 42.5 °F 42.1 °F 93% 29.61 in 1.2 mi SSW 3.5 mph - N/A   Overcast
10:52 PM 44.1 °F 41.5 °F 42.1 °F 93% 29.61 in 1.2 mi SSW 4.6 mph - N/A   Overcast
11:23 PM 43.0 °F 39.5 °F 41.0 °F 93% 29.61 in 1.8 mi SW 5.8 mph - N/A   Overcast
11:34 PM 44.1 °F 39.5 °F 41.0 °F 89% 29.61 in 3.0 mi SW 8.1 mph - N/A   Overcast
11:52 PM 44.1 °F 39.5 °F 41.0 °F 89% 29.62 in 8.0 mi West 8.1 mph - N/A   Overcast